CW4086 Weather Reports


time (UTC)temp
C
wind
direction
speed
KPH
gust
KPH
rain 1hr
cm
rain 24hr
cm
rain mn
cm
humidity
%
barometer
mb
20260901201105 30 271 3.2 9.7 0.00 0.00 0.00 18 1014.6
20260901200604 30 266 4.8 9.7 0.00 0.00 0.00 18 1014.7
20260901200104 30 248 3.2 8.0 0.00 0.00 0.00 18 1014.8
20260901195604 30 256 3.2 8.0 0.00 0.00 0.00 18 1014.8
20260901195106 29 346 3.2 8.0 0.00 0.00 0.00 18 1014.8
20260901194603 29 276 3.2 8.0 0.00 0.00 0.00 19 1014.8
20260901194104 29 257 3.2 8.0 0.00 0.00 0.00 20 1014.8
20260901193604 29 270 3.2 8.0 0.00 0.00 0.00 19 1014.8
20260901193104 28 263 3.2 8.0 0.00 0.00 0.00 19 1014.9
20260901192604 28 274 4.8 8.0 0.00 0.00 0.00 19 1015.0
20260901191604 28 279 3.2 8.0 0.00 0.00 0.00 20 1015.1
20260901191104 29 283 4.8 4.8 0.00 0.00 0.00 21 1015.1
20260901190607 29 319 3.2 4.8 0.00 0.00 0.00 21 1015.2
20260901190104 29 296 3.2 4.8 0.00 0.00 0.00 19 1015.3
20260901185606 28 9 3.2 4.8 0.00 0.00 0.00 20 1015.3
20260901185105 28 215 3.2 4.8 0.00 0.00 0.00 19 1015.3
20260901184604 28 262 3.2 4.8 0.00 0.00 0.00 20 1015.3
20260901184104 28 268 3.2 4.8 0.00 0.00 0.00 21 1015.4
20260901183604 28 312 1.6 4.8 0.00 0.00 0.00 21 1015.3
20260901182603 27 270 1.6 4.8 0.00 0.00 0.00 23 1015.4
20260901182106 27 269 1.6 4.8 0.00 0.00 0.00 22 1015.4
20260901181604 27 264 3.2 4.8 0.00 0.00 0.00 24 1015.4
20260901181104 27 262 1.6 4.8 0.00 0.00 0.00 23 1015.4
20260901180604 27 257 3.2 4.8 0.00 0.00 0.00 23 1015.3
20260901180105 26 297 3.2 4.8 0.00 0.00 0.00 25 1015.3
20260901175609 26 291 3.2 4.8 0.00 0.00 0.00 25 1015.4
20260901175104 26 254 1.6 4.8 0.00 0.00 0.00 25 1015.4
20260901174604 26 285 1.6 4.8 0.00 0.00 0.00 26 1015.4
20260901174104 25 276 1.6 4.8 0.00 0.00 0.00 27 1015.3
20260901173603 25 312 3.2 4.8 0.00 0.00 0.00 27 1015.3
20260901173104 25 270 1.6 4.8 0.00 0.00 0.00 27 1015.3
20260901172603 25 291 1.6 4.8 0.00 0.00 0.00 27 1015.3
20260901172104 25 271 3.2 4.8 0.00 0.00 0.00 28 1015.3
20260901171604 25 285 1.6 4.8 0.00 0.00 0.00 29 1015.3
20260901171104 24 310 1.6 4.8 0.00 0.00 0.00 29 1015.3
20260901170603 24 255 1.6 4.8 0.00 0.00 0.00 29 1015.3
20260901170104 24 311 1.6 4.8 0.00 0.00 0.00 28 1015.3
20260901165607 23 287 1.6 4.8 0.00 0.00 0.00 29 1015.3
20260901165103 23 305 3.2 4.8 0.00 0.00 0.00 28 1015.3
20260901164604 23 279 1.6 4.8 0.00 0.00 0.00 29 1015.3
20260901163604 23 302 1.6 4.8 0.00 0.00 0.00 28 1015.3
20260901163105 22 274 1.6 4.8 0.00 0.00 0.00 28 1015.2
20260901162604 22 276 1.6 4.8 0.00 0.00 0.00 29 1015.3
20260901162104 22 263 1.6 4.8 0.00 0.00 0.00 30 1015.1
20260901161604 22 291 1.6 4.8 0.00 0.00 0.00 31 1014.9
20260901161104 22 194 1.6 8.0 0.00 0.00 0.00 34 1014.9
20260901160604 21 132 1.6 8.0 0.00 0.00 0.00 35 1014.9
20260901155607 21 88 1.6 4.8 0.00 0.00 0.00 33 1014.8
20260901155104 21 88 1.6 4.8 0.00 0.00 0.00 37 1014.8
20260901154604 21 88 1.6 4.8 0.00 0.00 0.00 35 1014.8
20260901154103 21 88 1.6 4.8 0.00 0.00 0.00 32 1014.8
20260901153103 21 92 0.0 1.6 0.00 0.00 0.00 32 1014.8
20260901152604 21 92 0.0 3.2 0.00 0.00 0.00 34 1014.8
20260901152104 21 92 0.0 3.2 0.00 0.00 0.00 33 1014.8
20260901151603 21 92 0.0 3.2 0.00 0.00 0.00 34 1014.8
20260901151104 21 92 0.0 1.6 0.00 0.00 0.00 32 1014.7
20260901150604 20 92 0.0 0.0 0.00 0.00 0.00 32 1014.7
20260901145607 19 92 0.0 1.6 0.00 0.00 0.00 34 1014.7
20260901145104 18 92 0.0 0.0 0.00 0.00 0.00 34 1014.7
20260901144604 18 92 0.0 0.0 0.00 0.00 0.00 35 1014.7
20260901144104 17 92 0.0 0.0 0.00 0.00 0.00 37 1014.7
20260901143604 17 92 0.0 0.0 0.00 0.00 0.00 37 1014.7
20260901143104 17 92 0.0 0.0 0.00 0.00 0.00 38 1014.7
20260901142604 17 92 0.0 0.0 0.00 0.00 0.00 38 1014.6
20260901142103 17 92 0.0 1.6 0.00 0.00 0.00 36 1014.5
20260901141604 17 92 0.0 1.6 0.00 0.00 0.00 37 1014.4
20260901141103 17 92 0.0 1.6 0.00 0.00 0.00 37 1014.3
20260901140604 16 92 1.6 3.2 0.00 0.00 0.00 39 1014.3
20260901140105 16 92 1.6 3.2 0.00 0.00 0.00 39 1014.2
20260901135608 16 92 0.0 3.2 0.00 0.00 0.00 37 1014.2
20260901135104 17 92 1.6 3.2 0.00 0.00 0.00 38 1014.2
20260901134604 16 92 0.0 3.2 0.00 0.00 0.00 34 1014.2
20260901134105 16 92 1.6 3.2 0.00 0.00 0.00 33 1014.1
20260901133105 16 92 0.0 3.2 0.00 0.00 0.00 34 1013.8
20260901132604 17 92 1.6 3.2 0.00 0.00 0.00 33 1013.8
20260901132104 17 92 1.6 3.2 0.00 0.00 0.00 31 1013.7
20260901131604 17 92 1.6 3.2 0.00 0.00 0.00 32 1013.8
20260901131103 17 92 1.6 3.2 0.00 0.00 0.00 33 1013.8
20260901130605 17 92 3.2 3.2 0.00 0.00 0.00 33 1013.7
20260901130105 17 92 1.6 3.2 0.00 0.00 0.00 35 1013.7
20260901125606 16 92 0.0 3.2 0.00 0.00 0.00 37 1013.7
20260901124604 16 92 1.6 3.2 0.00 0.00 0.00 36 1013.7
20260901124104 16 92 1.6 3.2 0.00 0.00 0.00 35 1013.7
20260901123604 17 92 1.6 3.2 0.00 0.00 0.00 35 1013.7
20260901123104 17 92 1.6 3.2 0.00 0.00 0.00 35 1013.7
20260901122604 17 92 1.6 3.2 0.00 0.00 0.00 36 1013.7
20260901122104 17 92 1.6 3.2 0.00 0.00 0.00 36 1013.8
20260901121604 17 92 1.6 3.2 0.00 0.00 0.00 35 1013.7
20260901121104 17 92 1.6 3.2 0.00 0.00 0.00 35 1013.7
20260901120604 17 92 1.6 3.2 0.00 0.00 0.00 35 1013.7
20260901115104 17 92 0.0 3.2 0.00 0.00 0.00 35 1013.7
20260901114104 17 92 1.6 3.2 0.00 0.00 0.00 34 1013.8
20260901113604 17 92 0.0 1.6 0.00 0.00 0.00 34 1013.8
20260901113104 17 92 0.0 1.6 0.00 0.00 0.00 34 1013.8
20260901112605 17 92 0.0 3.2 0.00 0.00 0.00 34 1013.9
20260901112104 17 92 1.6 3.2 0.00 0.00 0.00 34 1013.9
20260901111604 17 92 1.6 3.2 0.00 0.00 0.00 34 1014.0
20260901111104 17 92 1.6 3.2 0.00 0.00 0.00 34 1014.1
20260901110104 17 92 0.0 3.2 0.00 0.00 0.00 33 1014.1
20260901105607 17 92 1.6 3.2 0.00 0.00 0.00 33 1014.1
20260901105104 18 92 1.6 3.2 0.00 0.00 0.00 33 1014.1
20260901104103 18 92 1.6 3.2 0.00 0.00 0.00 34 1014.1
20260901103104 18 92 1.6 3.2 0.00 0.00 0.00 34 1014.0
20260901102604 18 92 1.6 3.2 0.00 0.00 0.00 33 1014.0
20260901101608 18 92 1.6 3.2 0.00 0.00 0.00 33 1014.0
20260901100604 18 92 1.6 3.2 0.00 0.00 0.00 33 1014.0
20260901100105 18 92 1.6 3.2 0.00 0.00 0.00 33 1014.0
20260901095604 18 92 1.6 3.2 0.00 0.00 0.00 33 1014.0
20260901095103 18 92 1.6 3.2 0.00 0.00 0.00 33 1013.9
20260901093604 18 92 1.6 3.2 0.00 0.00 0.00 36 1014.0
20260901093104 18 92 1.6 3.2 0.00 0.00 0.00 36 1013.9
20260901092604 18 92 1.6 3.2 0.00 0.00 0.00 36 1013.9
20260901092104 17 92 1.6 3.2 0.00 0.00 0.00 36 1014.0
20260901091604 17 92 1.6 3.2 0.00 0.00 0.00 36 1014.0
20260901091104 17 92 1.6 3.2 0.00 0.00 0.00 36 1014.0
20260901090604 17 92 1.6 3.2 0.00 0.00 0.00 36 1013.9
20260901090104 18 92 0.0 3.2 0.00 0.00 0.00 35 1013.9
20260901085104 18 92 1.6 3.2 0.00 0.00 0.00 34 1014.1
20260901084604 18 92 0.0 1.6 0.00 0.00 0.00 33 1014.1
20260901084104 18 92 0.0 3.2 0.00 0.00 0.00 33 1014.2
20260901083106 18 92 1.6 3.2 0.00 0.00 0.00 34 1014.2
20260901082603 18 92 1.6 3.2 0.00 0.00 0.00 36 1014.2
20260901082103 18 92 0.0 1.6 0.00 0.00 0.00 37 1014.2
20260901081605 18 92 0.0 3.2 0.00 0.00 0.00 37 1014.3
20260901081104 18 92 0.0 3.2 0.00 0.00 0.00 37 1014.3
20260901080604 18 92 1.6 3.2 0.00 0.00 0.00 36 1014.5
20260901080104 18 92 0.0 3.2 0.00 0.00 0.00 36 1014.5
20260901075604 18 92 0.0 3.2 0.00 0.00 0.00 36 1014.6
20260901075104 18 92 1.6 3.2 0.00 0.00 0.00 36 1014.5
20260901074604 19 92 0.0 1.6 0.00 0.00 0.00 36 1014.5
20260901074104 19 92 0.0 1.6 0.00 0.00 0.00 36 1014.4
20260901073604 19 92 0.0 1.6 0.00 0.00 0.00 35 1014.3
20260901073104 20 92 0.0 1.6 0.00 0.00 0.00 35 1014.3
20260901072604 20 92 0.0 1.6 0.00 0.00 0.00 35 1014.1
20260901072104 19 92 1.6 1.6 0.00 0.00 0.00 35 1014.1
20260901071104 19 92 1.6 3.2 0.00 0.00 0.00 33 1014.2
20260901070104 20 92 0.0 1.6 0.00 0.00 0.00 33 1014.2
20260901065612 20 92 0.0 1.6 0.00 0.00 0.00 32 1014.1
20260901065104 20 92 0.0 1.6 0.00 0.00 0.00 32 1014.1
20260901064604 20 92 0.0 1.6 0.00 0.00 0.00 32 1014.1
20260901064103 20 92 0.0 1.6 0.00 0.00 0.00 31 1014.1
20260901063604 20 92 0.0 1.6 0.00 0.00 0.00 31 1014.1
20260901063104 20 92 0.0 1.6 0.00 0.00 0.00 34 1014.1
20260901062604 20 92 0.0 0.0 0.00 0.00 0.00 33 1014.1
20260901062104 20 92 0.0 1.6 0.00 0.00 0.00 33 1014.1
20260901061604 20 92 0.0 1.6 0.00 0.00 0.00 32 1014.1
20260901061104 21 92 0.0 4.8 0.00 0.00 0.00 32 1014.0
20260901060604 21 92 0.0 4.8 0.00 0.00 0.00 32 1014.1
20260901060104 20 105 1.6 3.2 0.00 0.00 0.00 32 1014.0
20260901055609 21 105 0.0 1.6 0.00 0.00 0.00 34 1014.1
20260901055103 21 105 0.0 1.6 0.00 0.00 0.00 34 1014.1
20260901054604 21 105 0.0 1.6 0.00 0.00 0.00 34 1014.1
20260901054104 21 105 0.0 1.6 0.00 0.00 0.00 32 1014.1
20260901053604 21 105 0.0 0.0 0.00 0.00 0.00 32 1014.1
20260901053104 21 105 0.0 0.0 0.00 0.00 0.00 32 1014.1
20260901052605 21 105 0.0 0.0 0.00 0.00 0.00 32 1014.1
20260901052104 21 105 0.0 3.2 0.00 0.00 0.00 31 1014.1
20260901051604 21 105 0.0 4.8 0.00 0.00 0.00 31 1014.1
20260901051104 21 105 1.6 4.8 0.00 0.00 0.00 31 1014.1
20260901050604 21 107 0.0 1.6 0.00 0.00 0.00 32 1014.1
20260901050104 22 107 0.0 1.6 0.00 0.00 0.00 31 1014.0
20260901045610 22 107 0.0 1.6 0.00 0.00 0.00 32 1014.0
20260901044604 22 107 0.0 1.6 0.00 0.00 0.00 34 1014.0
20260901044104 22 108 0.0 4.8 0.00 0.00 0.00 35 1014.0
20260901043104 22 119 1.6 4.8 0.00 0.00 0.00 36 1014.0
20260901042604 22 120 0.0 0.0 0.00 0.00 0.00 35 1013.9
20260901042104 22 120 0.0 1.6 0.00 0.00 0.00 36 1013.8
20260901041604 22 120 0.0 3.2 0.00 0.00 0.00 35 1013.7
20260901041104 23 120 0.0 4.8 0.00 0.00 0.00 35 1013.6
20260901040104 23 130 1.6 4.8 0.00 0.00 0.00 33 1013.4
20260901035604 23 137 0.0 3.2 0.00 0.00 0.00 32 1013.4
20260901035104 23 137 0.0 1.6 0.00 0.00 0.00 33 1013.3
20260901034604 23 138 0.0 3.2 0.00 0.00 0.00 34 1013.3
20260901034104 23 137 1.6 3.2 0.00 0.00 0.00 34 1013.3
20260901033604 23 169 0.0 1.6 0.00 0.00 0.00 34 1013.3
20260901033104 23 169 0.0 1.6 0.00 0.00 0.00 33 1013.1
20260901032104 24 169 0.0 1.6 0.00 0.00 0.00 32 1013.0
20260901031604 24 169 0.0 3.2 0.00 0.00 0.00 32 1012.9
20260901031105 24 173 0.0 3.2 0.00 0.00 0.00 32 1012.8
20260901030603 24 174 0.0 1.6 0.00 0.00 0.00 31 1012.8
20260901030105 25 174 0.0 3.2 0.00 0.00 0.00 31 1012.8
20260901025608 25 174 0.0 3.2 0.00 0.00 0.00 31 1012.8
20260901024603 25 184 1.6 3.2 0.00 0.00 0.00 30 1012.7
20260901024103 25 82 0.0 3.2 0.00 0.00 0.00 31 1012.7
20260901023604 25 80 0.0 3.2 0.00 0.00 0.00 29 1012.6
20260901022603 26 181 0.0 3.2 0.00 0.00 0.00 28 1012.3
20260901022104 26 218 0.0 3.2 0.00 0.00 0.00 26 1012.3
20260901021604 26 236 0.0 3.2 0.00 0.00 0.00 24 1012.3
20260901021105 26 236 0.0 3.2 0.00 0.00 0.00 23 1012.3
20260901020105 27 235 1.6 4.8 0.00 0.00 0.00 22 1012.2
20260901015608 27 248 1.6 4.8 0.00 0.00 0.00 23 1012.2
20260901015103 27 270 3.2 4.8 0.00 0.00 0.00 22 1012.1
20260901014604 27 264 3.2 8.0 0.00 0.00 0.00 22 1012.0
20260901014104 28 241 3.2 8.0 0.00 0.00 0.00 22 1012.0
20260901013604 28 255 4.8 8.0 0.00 0.00 0.00 21 1012.1
20260901013104 28 250 3.2 11.3 0.00 0.00 0.00 21 1012.0
20260901012604 28 257 4.8 11.3 0.00 0.00 0.00 21 1012.0
20260901011604 29 259 3.2 9.7 0.00 0.00 0.00 21 1012.1
20260901011104 30 249 4.8 9.7 0.00 0.00 0.00 20 1012.0
20260901010604 30 238 3.2 9.7 0.00 0.00 0.00 21 1012.0
20260901010104 30 234 4.8 9.7 0.00 0.00 0.00 20 1012.0
20260901005609 30 264 4.8 9.7 0.00 0.00 0.00 19 1011.9
20260901004604 30 240 3.2 12.9 0.00 0.00 0.00 20 1011.8
20260901004103 30 244 3.2 12.9 0.00 0.00 0.00 21 1011.7
20260901003603 30 227 4.8 16.1 0.00 0.00 0.00 22 1011.7
20260901003104 30 242 6.4 16.1 0.00 0.00 0.00 23 1011.7
20260901002604 31 239 8.0 16.1 0.00 0.00 0.00 23 1011.6
20260901002104 31 249 4.8 14.5 0.00 0.00 0.00 24 1011.6
20260901001604 31 235 4.8 14.5 0.00 0.00 0.00 24 1011.6
20260901001104 31 254 6.4 14.5 0.00 0.00 0.00 23 1011.5
20260901000604 31 226 3.2 16.1 0.00 0.00 0.00 23 1011.5
20260901000104 31 260 8.0 16.1 0.00 0.00 0.00 23 1011.5
20260831235604 31 235 8.0 12.9 0.00 0.00 0.00 23 1011.5
20260831235104 32 266 8.0 12.9 0.00 0.00 0.00 22 1011.5
20260831234604 31 279 6.4 11.3 0.00 0.00 0.00 23 1011.5
20260831234105 31 239 4.8 12.9 0.00 0.00 0.00 24 1011.5
20260831233605 31 271 8.0 14.5 0.00 0.00 0.00 23 1011.5
20260831233104 32 266 8.0 14.5 0.00 0.00 0.00 24 1011.5
20260831232604 32 255 6.4 14.5 0.00 0.00 0.00 23 1011.5
20260831231603 32 256 6.4 19.3 0.00 0.00 0.00 24 1011.5
20260831231104 32 268 9.7 19.3 0.00 0.00 0.00 23 1011.5
20260831230107 32 237 9.7 16.1 0.00 0.00 0.00 23 1011.6
20260831225106 32 276 1.6 12.9 0.00 0.00 0.00 25 1011.6
20260831224604 31 262 8.0 11.3 0.00 0.00 0.00 26 1011.6
20260831224104 31 267 6.4 12.9 0.00 0.00 0.00 24 1011.9
20260831223604 31 281 6.4 12.9 0.00 0.00 0.00 24 1011.9
20260831223104 31 255 4.8 12.9 0.00 0.00 0.00 23 1011.9
20260831221604 32 269 4.8 12.9 0.00 0.00 0.00 22 1012.0
20260831220604 31 263 8.0 14.5 0.00 0.00 0.00 22 1012.1
20260831215104 31 275 8.0 12.9 0.00 0.00 0.00 24 1012.1
20260831214604 32 252 8.0 12.9 0.00 0.00 0.00 23 1012.1
20260831214104 31 271 6.4 19.3 0.00 0.00 0.00 24 1012.1
20260831212604 32 262 8.0 19.3 0.00 0.00 0.00 22 1012.3
20260831212103 31 276 6.4 19.3 0.00 0.00 0.00 22 1012.3
20260831211604 31 264 8.0 19.3 0.00 0.00 0.00 21 1012.6
20260831211104 31 274 4.8 12.9 0.00 0.00 0.00 21 1012.5
20260831210604 31 284 4.8 12.9 0.00 0.00 0.00 22 1012.6
20260831210106 31 270 4.8 14.5 0.00 0.00 0.00 21 1012.7
20260831205108 31 266 4.8 12.9 0.00 0.00 0.00 21 1012.7
20260831204604 31 265 8.0 11.3 0.00 0.00 0.00 20 1012.7
20260831204104 31 260 8.0 11.3 0.00 0.00 0.00 20 1012.7
20260831203604 31 280 6.4 14.5 0.00 0.00 0.00 22 1012.7
20260831202604 31 254 4.8 14.5 0.00 0.00 0.00 23 1012.6
20260831202104 31 276 8.0 11.3 0.00 0.00 0.00 23 1012.6
20260831201604 31 285 8.0 11.3 0.00 0.00 0.00 23 1012.6